Wind_Speed
10 10 10 11 11 10 9 9 9 9 9 9 10 10 10 11 11 11 11 11 11 11 11 11 10 10 10 10 9 9 9 8 8 8 8 8 7 7 7 8 9 9 9 9 9 9 9 10 10 10 11 11 11 11 11 12 12 13 15 18 20 21 19 17 16 16 16 17 17 16 16 16 16 15 15 16 17 17 18 19 19 20 21 21 21 21 21 21
10 11 11 11 10 10 9 10 10 10 10 10 10 10 11 11 11 11 11 11 11 11 11 11 10 11 11 11 10 10 10 10 10 10 9 9 8 8 8 9 9 10 10 11 11 11 11 12 12 12 13 13 13 13 13 14 14 14 17 19 20 20 18 17 16 17 17 17 17 17 17 17 17 16 16 17 17 17 18 19 20 21 21 21 21 21 21 21
12 12 11 11 10 10 10 10 10 10 10 10 10 10 10 10 10 9 9 9 9 9 9 10 10 10 10 10 10 11 11 11 11 10 9 10 11 11 11 11 10 11 12 12 12 13 13 13 13 14 15 15 15 14 15 15 15 16 17 19 20 18 17 17 17 17 17 17 17 17 17 17 17 17 17 18 18 17 18 19 21 21 21 21 20 20 20 20
12 12 11 10 10 9 9 9 9 9 9 9 9 9 8 8 8 7 7 8 8 8 9 9 10 10 10 10 11 11 12 12 11 10 11 12 13 13 13 13 12 12 13 13 14 14 14 14 15 15 16 16 16 16 16 16 16 17 18 19 19 18 17 18 17 18 17 17 17 17 17 17 17 17 17 17 17 18 19 20 20 20 20 19 18 19 19 19
12 11 10 10 9 8 8 8 8 7 7 7 7 7 7 7 7 8 8 8 9 9 10 10 10 10 11 11 11 12 13 13 12 12 13 14 14 14 14 15 14 14 13 14 15 15 16 16 16 16 16 17 17 17 17 17 17 18 18 19 18 18 18 18 18 18 18 18 18 17 17 17 17 16 16 16 17 19 19 19 19 19 18 18 18 19 20 20
11 10 9 8 8 7 7 7 6 6 6 6 6 6 7 8 9 9 10 10 11 11 11 12 11 12 12 12 13 13 13 14 14 15 15 15 16 16 16 16 16 16 15 15 15 15 16 17 17 18 18 18 17 17 18 17 17 19 19 19 18 18 19 19 18 18 18 18 18 18 18 17 17 16 17 18 19 19 19 18 18 18 18 18 19 20 21 22
9 8 7 7 6 6 6 6 5 6 6 6 6 7 8 9 10 11 12 13 13 13 13 13 14 14 14 14 15 15 15 16 16 16 16 16 16 17 17 17 17 17 17 17 17 16 16 17 17 18 18 19 18 18 18 18 18 19 19 19 19 19 19 19 19 19 19 19 19 19 18 18 17 17 18 19 19 19 19 19 19 19 19 19 20 21 23 23
6 5 5 5 5 5 6 6 6 7 7 8 9 9 10 11 12 13 14 14 15 15 15 15 16 16 17 17 17 17 18 18 18 18 18 18 17 18 17 17 17 17 17 18 18 17 17 16 17 18 19 19 19 19 18 19 19 19 19 19 19 19 18 18 18 18 18 18 19 19 19 18 18 18 20 21 20 20 20 20 19 20 20 20 21 22 23 23
3 3 4 4 5 6 7 8 9 10 11 11 11 12 13 13 14 15 16 17 17 18 18 18 18 19 19 19 19 19 20 20 19 19 20 20 20 19 19 18 18 18 17 17 18 18 17 17 17 18 19 19 19 19 19 18 19 19 18 18 18 18 18 18 18 18 18 18 19 19 19 18 19 20 21 22 21 21 21 20 20 21 21 22 22 22 22 22
4 5 5 6 7 8 9 10 11 12 13 13 14 14 15 16 17 18 18 19 20 20 21 21 21 21 21 21 21 21 21 20 20 21 21 22 22 21 20 19 18 18 17 17 17 17 17 17 17 17 18 19 19 19 18 18 19 19 18 19 19 19 19 19 19 19 19 19 19 19 19 20 20 21 22 22 21 21 21 21 21 22 23 22 21 21 21 21
5 6 7 8 9 10 11 11 12 13 14 15 16 17 18 19 19 20 21 21 21 22 22 22 22 22 22 22 22 22 22 22 22 23 22 22 21 20 20 19 18 18 18 17 17 17 17 16 16 17 17 18 17 17 17 18 18 18 17 18 18 18 18 18 18 18 18 19 18 18 19 21 22 22 23 22 21 22 22 23 22 22 22 21 21 21 21 21
6 7 8 9 10 10 11 12 13 15 16 17 18 19 20 21 22 22 22 22 22 23 23 23 22 22 23 23 23 23 23 23 23 22 21 20 19 18 18 18 18 17 17 17 17 17 16 16 16 16 16 17 17 17 17 17 16 16 16 17 17 18 19 19 18 18 17 17 16 16 18 20 21 20 20 19 20 21 21 21 20 20 20 21 21 21 22 23
8 9 10 10 11 12 13 14 15 16 17 18 19 20 21 21 22 22 22 22 22 22 22 22 21 22 22 22 22 22 23 22 21 19 18 17 17 18 18 17 18 17 16 16 16 16 16 16 15 15 15 16 17 16 17 17 17 17 17 19 19 19 20 19 16 15 14 14 14 13 13 16 17 16 17 17 19 19 20 20 20 20 19 20 21 22 23 24
10 10 11 12 13 14 15 16 16 17 18 18 19 19 20 20 20 20 20 20 20 20 20 19 19 20 20 20 21 21 19 17 16 16 16 16 17 17 17 16 16 16 15 15 15 15 15 15 15 15 15 15 16 16 17 17 16 17 18 19 19 16 16 16 13 13 14 14 15 14 11 15 18 17 16 17 18 20 20 20 19 18 19 20 22 23 24 25
10 11 13 14 14 15 16 16 16 17 18 18 18 18 18 18 17 17 17 17 17 17 16 17 16 16 16 17 17 16 15 15 15 16 17 18 18 17 16 16 16 15 14 14 14 15 15 15 14 15 15 15 15 15 16 16 16 17 16 16 17 14 13 15 14 14 15 15 14 13 11 14 16 15 16 17 18 20 20 20 19 19 20 21 23 24 25 26
11 12 13 14 15 15 16 16 16 16 16 15 15 15 15 15 15 15 16 17 16 15 15 14 13 13 14 14 12 12 15 16 16 16 17 18 17 16 15 15 15 15 15 14 14 14 14 14 14 14 14 14 15 14 15 16 16 17 15 15 16 14 14 15 15 15 15 15 14 13 12 16 18 18 19 20 20 21 21 22 22 22 23 24 25 26 27 28
13 14 14 15 15 15 14 13 13 12 12 13 14 14 15 15 15 15 16 16 14 14 13 11 10 12 11 10 11 14 16 16 15 15 15 15 14 14 13 13 14 14 15 14 14 14 14 14 13 13 14 14 13 13 13 12 11 12 13 15 17 18 18 16 16 17 16 16 16 16 17 20 21 21 22 22 23 23 23 24 25 26 26 27 27 27 27 28
14 14 14 14 13 11 10 9 10 11 12 13 13 13 12 12 12 12 12 12 12 11 10 8 10 10 8 10 13 14 14 14 13 12 13 13 12 12 12 12 12 12 13 14 14 14 14 14 13 13 14 13 13 13 13 12 12 13 15 17 19 21 21 17 16 18 17 17 18 19 20 23 23 23 23 23 23 24 25 25 26 26 26 25 25 24 25 24
10 9 9 8 7 6 6 7 8 9 10 10 9 8 8 8 9 9 9 9 9 9 8 8 10 10 8 11 13 12 12 13 12 12 13 13 11 10 11 11 11 11 12 12 13 13 13 14 13 14 14 14 14 15 16 18 19 19 19 20 20 20 21 18 17 18 17 18 19 19 20 22 21 20 20 20 21 22 23 23 23 23 23 23 22 22 21 21
4 4 3 3 4 5 6 6 6 6 7 7 7 7 8 9 9 10 10 9 8 8 9 9 10 11 10 11 11 12 14 14 14 14 13 12 11 11 11 11 11 11 11 12 13 13 13 14 14 15 16 16 16 17 17 18 18 18 18 19 20 20 20 19 18 18 17 17 18 17 17 17 17 17 18 19 21 22 22 22 22 22 22 21 20 19 18 17
3 3 3 4 5 5 4 5 5 5 5 6 7 9 11 12 12 12 12 10 9 9 9 9 10 11 10 10 11 13 14 14 15 15 12 12 12 11 11 11 11 11 11 12 13 13 13 14 15 16 16 16 15 15 16 16 17 17 17 18 19 19 19 18 17 15 14 14 14 14 15 17 17 19 20 22 22 23 23 22 21 20 18 17 16 15 14 14
3 4 4 4 4 3 3 5 5 6 6 7 9 11 13 13 13 13 12 11 10 9 8 8 9 10 9 11 13 14 15 15 15 14 13 13 13 12 11 11 10 11 11 11 12 12 12 13 14 14 14 14 15 15 16 16 16 16 16 17 16 16 17 15 14 12 11 12 14 16 18 20 20 21 22 23 23 22 20 19 17 15 14 14 13 13 12 12
3 3 4 4 4 3 5 6 6 8 9 10 11 12 13 13 12 13 12 10 7 6 8 9 9 10 10 13 15 15 15 15 13 12 12 12 12 12 12 11 11 11 10 10 11 11 11 12 13 13 14 14 14 15 15 15 15 15 15 15 14 14 13 10 11 12 12 13 16 17 20 22 22 21 20 19 17 16 15 14 14 13 13 13 12 12 12 12
4 4 4 4 5 5 7 7 8 9 10 11 12 13 13 12 12 12 10 8 4 6 9 9 9 11 12 15 15 15 15 13 11 12 12 11 12 12 12 12 12 11 11 11 11 11 11 11 12 12 12 12 13 14 14 14 15 14 14 13 12 12 11 10 12 15 16 16 15 13 14 17 16 13 12 12 13 13 13 13 13 13 13 12 12 12 13 13
5 5 6 6 7 8 9 9 10 11 12 12 12 13 12 11 12 10 9 5 1 6 11 9 10 12 13 16 15 15 14 11 12 13 12 13 13 13 12 12 11 11 11 11 11 10 9 9 10 11 11 12 13 13 13 12 12 11 11 10 10 10 11 13 14 15 14 11 9 9 7 6 4 6 10 12 13 14 13 12 12 12 12 12 12 12 13 13
6 6 7 8 8 9 10 11 12 12 12 12 12 12 12 12 11 9 7 2 0 7 11 9 11 13 14 15 14 15 12 11 14 13 13 15 14 13 13 11 11 11 11 11 9 7 8 9 10 11 12 12 11 10 9 9 8 9 9 10 11 12 13 14 15 15 12 9 11 13 10 5 3 9 14 14 14 13 11 11 10 11 11 12 12 13 13 14
7 8 8 9 10 11 11 11 11 11 12 12 12 12 12 12 10 8 4 1 2 10 12 11 14 15 15 15 14 14 12 13 14 13 14 15 13 13 12 11 11 10 10 10 7 7 9 11 12 11 9 8 8 8 8 9 9 10 11 13 13 13 13 15 18 19 17 16 16 14 12 9 6 9 12 11 10 10 9 10 10 11 11 12 13 13 14 15
9 10 10 11 11 11 11 11 11 12 12 12 12 11 11 11 9 7 1 2 4 11 11 13 15 15 16 15 14 15 13 14 13 12 14 13 11 12 10 10 11 9 8 9 8 10 13 12 10 7 5 6 8 8 9 9 11 13 14 13 12 14 17 20 21 19 16 13 8 4 6 7 4 6 7 6 6 8 8 10 11 11 12 13 14 15 16 17
10 11 12 12 11 10 11 11 11 11 11 11 11 10 11 9 8 5 2 1 7 11 11 14 14 14 14 14 14 14 13 13 13 13 13 11 11 11 9 10 11 7 7 10 10 13 14 11 6 4 6 9 9 10 11 11 12 13 12 13 15 19 20 19 16 13 10 6 1 0 2 3 2 3 4 4 4 7 9 10 11 11 12 13 14 16 17 19
10 12 13 13 12 11 11 11 11 11 10 11 10 10 10 8 7 3 2 3 8 9 12 13 13 13 12 11 12 13 12 12 13 13 13 12 13 12 9 9 10 7 7 10 12 14 14 9 4 4 9 11 11 12 12 12 11 11 13 17 19 18 15 13 10 7 4 2 2 2 1 2 2 1 1 4 6 9 10 10 10 9 11 12 14 16 18 20
11 13 13 13 13 12 12 11 11 11 11 10 9 10 8 5 7 4 1 6 8 9 12 11 11 12 11 11 12 12 12 11 11 11 11 10 10 11 9 10 13 10 9 13 15 16 13 7 4 6 12 15 14 13 12 11 11 13 17 17 14 11 9 7 4 1 2 1 2 2 1 3 3 0 2 6 9 10 9 9 9 8 9 10 13 15 17 20
11 13 14 14 14 13 12 11 12 11 10 10 9 9 6 3 7 7 3 7 8 9 12 11 10 12 12 13 14 13 12 12 12 12 12 12 12 14 14 15 19 15 13 17 19 17 12 6 4 7 15 16 12 11 12 12 15 17 15 12 8 6 4 3 1 1 2 1 2 1 4 4 5 4 6 9 9 7 6 6 7 7 7 9 11 14 16 19
11 13 14 14 14 13 12 11 11 10 10 10 9 9 6 3 5 6 6 8 8 10 12 10 10 12 12 13 14 14 12 12 14 13 14 14 14 17 17 17 20 18 15 18 19 18 13 6 5 11 16 12 8 11 12 15 18 14 9 10 8 4 3 3 2 1 2 0 1 7 8 4 4 5 6 8 7 6 6 6 6 6 7 8 10 13 16 18
11 13 14 15 14 13 12 10 10 10 10 10 9 8 6 5 5 6 7 9 9 10 10 9 10 11 12 13 15 15 14 13 15 14 13 14 13 17 17 15 18 20 18 17 18 17 11 5 8 15 15 9 9 14 15 17 14 7 7 10 6 2 3 4 2 2 3 3 7 10 6 2 3 5 5 6 5 5 7 7 7 8 8 8 10 13 15 17
11 13 14 14 13 12 11 9 9 10 9 9 8 8 8 7 6 7 8 9 9 10 10 8 9 10 11 13 14 16 15 13 15 14 13 14 14 16 17 15 17 21 19 17 17 16 10 8 12 16 10 6 13 18 16 14 9 5 9 9 3 3 4 5 5 5 5 4 5 4 3 3 4 3 3 3 4 7 8 8 9 9 8 9 11 13 15 17
11 12 13 12 12 11 10 9 9 9 9 9 7 10 12 9 7 8 9 10 10 11 11 8 10 11 11 13 13 16 16 13 14 14 14 15 14 16 17 15 18 21 20 19 18 13 10 11 13 11 5 7 17 19 14 12 9 8 8 5 4 5 3 4 7 5 4 4 1 2 2 4 3 2 2 3 6 8 9 10 10 9 9 10 11 13 15 18
10 12 11 11 10 9 9 9 9 9 9 8 8 11 12 10 9 9 9 11 10 11 12 11 12 13 14 14 14 16 17 15 13 13 15 15 13 16 16 14 18 20 20 22 19 13 12 15 12 5 3 12 19 16 13 13 9 6 4 5 7 5 2 2 4 3 3 3 1 1 3 3 2 1 2 4 6 8 9 10 10 9 10 10 12 14 17 22
10 10 10 9 9 9 9 9 9 9 9 9 10 12 11 10 10 9 9 11 11 11 12 13 13 14 15 15 16 17 17 16 14 12 15 15 13 16 14 14 18 20 21 23 19 14 14 13 9 4 7 16 18 12 11 10 7 6 5 7 9 4 2 4 4 4 3 3 2 1 2 1 2 2 3 5 6 8 10 10 10 10 10 11 13 17 23 30
9 9 8 8 8 8 9 9 9 10 8 9 11 12 10 10 10 10 10 11 11 11 12 13 13 13 14 15 17 18 18 18 14 12 15 15 14 15 14 15 19 21 22 23 18 14 12 8 6 7 12 16 14 9 7 6 6 8 7 10 11 5 4 5 5 4 3 4 3 1 2 1 4 2 1 4 7 10 11 11 11 11 12 14 18 24 31 38
7 7 8 8 8 8 8 9 10 10 9 10 12 11 10 10 10 10 11 11 12 12 12 13 13 14 14 15 17 19 19 18 13 11 16 16 15 15 14 17 21 21 22 21 15 12 10 6 8 11 14 14 10 8 4 4 7 10 11 14 13 8 5 6 5 4 4 4 2 2 3 2 5 5 5 5 10 13 14 14 13 13 15 19 25 32 38 43
6 7 8 8 8 9 9 9 9 10 10 12 13 11 11 10 10 11 11 12 12 12 12 13 14 15 15 17 19 19 20 18 11 12 17 17 15 14 15 19 22 21 20 18 13 10 9 8 11 14 15 12 9 7 2 2 8 12 13 13 11 8 7 5 3 2 3 4 3 5 4 1 6 8 6 9 14 16 18 18 16 16 20 25 32 38 44 48
6 7 8 9 9 10 10 9 9 11 12 13 13 12 12 11 11 11 11 12 13 13 13 13 14 16 17 18 19 19 21 17 12 14 17 15 15 16 18 20 20 20 18 14 11 11 12 10 11 14 13 9 7 5 3 5 10 13 13 11 8 9 7 4 3 3 3 6 6 5 3 4 10 11 9 13 18 21 22 21 19 22 26 31 38 44 48 49
7 8 9 9 10 11 9 9 11 12 13 14 13 13 12 12 11 12 12 13 13 14 13 13 15 16 17 19 19 19 20 16 13 16 16 15 16 18 19 19 19 18 15 11 11 14 12 9 11 13 11 6 4 4 5 8 13 15 14 11 9 11 9 5 6 7 6 6 6 4 3 5 10 12 12 17 22 24 25 24 25 28 31 36 43 47 49 50
7 8 9 10 11 11 9 11 13 13 14 15 14 13 13 13 13 12 12 13 14 14 13 14 16 17 18 18 18 19 18 15 15 16 15 15 18 19 19 19 18 15 11 10 12 12 10 10 11 10 7 4 2 2 4 10 15 15 13 12 13 15 13 8 7 6 5 5 5 5 3 3 9 15 17 22 26 27 29 30 30 31 35 41 47 49 49 48
7 7 8 11 12 11 10 13 14 14 14 14 14 14 14 13 13 13 13 13 14 14 14 15 16 18 18 18 18 18 18 17 17 16 15 17 19 18 18 18 16 12 9 11 11 10 10 11 9 7 4 4 4 5 8 13 15 13 12 14 16 15 10 5 4 4 3 4 6 7 7 8 14 20 22 25 28 30 32 32 31 35 41 46 48 48 48 47
8 8 8 10 12 12 13 15 15 14 14 14 14 15 15 14 14 13 13 14 14 15 15 16 18 19 18 19 19 19 20 20 18 16 17 19 19 19 19 18 14 9 9 10 10 11 11 10 10 8 7 8 10 10 11 13 13 12 14 15 13 8 3 2 3 4 5 9 9 9 12 14 18 22 25 28 30 31 31 32 35 41 46 47 47 47 47 46
10 11 11 10 11 13 15 16 15 15 15 14 14 16 16 15 14 13 14 14 15 16 16 17 19 19 19 19 20 20 20 20 18 18 19 19 19 19 19 16 11 8 10 11 11 12 12 11 11 11 11 12 10 9 10 10 12 15 16 11 6 2 0 3 5 5 6 9 9 9 15 18 21 25 29 30 30 30 32 36 42 46 47 47 47 47 46 46
11 13 14 12 12 13 15 15 15 15 15 14 15 16 16 16 15 14 14 15 16 17 17 18 19 20 19 20 21 21 21 19 19 19 20 19 18 17 17 14 10 9 11 11 12 14 12 12 13 14 12 10 8 9 11 13 18 19 12 4 3 2 3 5 6 6 7 8 9 14 20 25 27 29 30 28 28 31 36 42 46 46 46 47 46 46 46 46
13 14 15 14 14 15 15 15 16 16 15 15 15 16 16 16 16 15 15 16 17 17 18 19 19 19 20 21 22 23 22 22 21 21 21 20 18 16 14 11 9 9 11 12 14 14 13 13 14 15 12 7 7 12 15 19 24 16 3 3 6 5 5 6 7 10 12 11 14 20 26 29 28 27 25 26 30 36 42 45 46 46 46 46 46 46 45 44
14 15 15 15 15 16 16 16 16 16 15 15 15 16 16 16 16 16 16 16 17 17 18 19 19 19 20 22 23 23 22 22 23 23 22 19 17 15 12 9 8 9 11 13 14 14 14 14 14 15 13 8 9 15 18 23 22 8 3 6 12 8 6 6 9 14 16 17 21 26 29 29 26 23 24 29 36 42 45 45 45 45 45 45 45 45 44 42
15 15 16 15 15 16 17 16 16 15 14 15 16 16 16 16 16 16 16 17 17 18 19 19 19 19 20 22 23 23 22 21 22 22 21 19 17 14 10 8 7 9 12 14 14 14 14 13 13 15 14 10 13 19 22 23 14 3 4 10 15 10 7 8 12 16 19 23 29 30 27 24 23 25 31 37 42 45 45 45 45 45 45 45 44 43 43 42
16 16 17 16 15 17 17 15 15 15 15 16 16 16 16 16 16 17 17 17 18 19 20 20 19 19 20 22 23 22 21 21 21 20 19 18 16 12 9 7 8 11 14 14 14 14 13 13 15 15 15 14 16 21 22 17 5 4 5 14 14 10 8 11 15 18 21 27 31 28 24 21 24 31 38 43 45 46 45 45 45 45 45 44 43 43 42 42
Wind_Direction
94 97 101 104 106 104 100 94 90 86 81 78 75 72 70 69 67 65 61 57 53 48 44 39 33 27 23 17 11 6 360 353 348 341 330 321 315 308 299 292 288 283 280 278 278 276 275 275 276 275 271 267 265 264 262 259 257 253 252 252 256 264 271 278 283 281 280 282 284 285 285 285 282 278 273 272 271 271 271 273 276 277 276 276 276 276 275 275
93 95 97 97 97 93 88 84 80 77 75 73 70 69 67 65 64 61 57 53 49 44 39 33 27 22 17 13 8 0 355 351 346 341 334 327 323 316 308 300 293 287 281 277 275 275 274 274 275 275 273 271 268 264 261 259 257 254 255 256 260 268 275 278 279 278 279 282 284 285 285 284 280 277 275 273 272 272 272 274 273 272 271 271 272 272 273 273
92 93 93 91 88 85 81 76 71 66 63 62 63 63 62 62 60 55 50 44 39 34 27 21 15 10 6 3 358 352 347 343 339 337 333 327 323 318 312 306 298 290 284 279 276 274 272 273 273 274 275 274 271 266 262 261 259 257 257 260 265 272 276 277 278 279 280 282 284 285 285 282 279 277 274 274 274 273 271 270 269 269 270 271 272 272 271 271
91 91 89 87 84 81 76 71 66 60 55 54 54 53 51 47 42 37 30 24 19 14 9 5 0 355 351 346 345 340 335 334 331 329 326 321 318 315 311 307 301 293 286 282 279 277 274 273 273 273 274 274 273 269 265 264 263 260 260 263 268 273 275 276 277 279 281 283 285 285 285 282 278 276 274 274 274 271 268 268 270 271 272 273 274 275 274 272
89 89 87 84 80 74 68 64 60 56 52 48 44 38 30 21 14 8 4 360 357 354 350 349 346 342 338 334 334 332 329 329 325 321 321 318 316 314 312 309 304 298 291 284 280 278 276 276 275 275 274 274 273 270 268 267 264 264 264 265 268 271 273 274 276 279 282 283 284 284 283 281 279 276 275 273 270 269 270 271 271 270 272 274 276 278 276 273
83 81 79 75 70 63 57 52 47 43 37 30 23 12 4 356 350 346 343 340 338 337 337 335 332 329 327 325 326 325 326 325 318 317 318 317 315 313 312 309 305 300 295 289 283 279 276 276 276 276 276 275 273 270 270 269 266 266 267 268 269 270 272 274 277 279 281 282 282 283 282 280 278 276 275 273 272 274 274 272 270 269 273 277 280 280 277 273
75 71 65 59 52 44 36 29 21 14 7 1 352 343 340 336 333 331 329 326 325 324 325 324 323 321 319 319 319 319 321 319 315 317 317 317 316 313 311 308 304 299 294 289 284 280 277 275 276 276 276 274 273 271 270 269 267 266 268 271 272 273 274 276 278 279 279 281 282 282 282 279 275 275 276 277 278 277 274 270 269 271 274 279 282 281 277 272
64 55 45 33 23 12 1 353 346 341 336 331 327 324 322 321 321 320 319 318 317 316 317 316 316 314 313 315 314 315 315 314 314 317 317 317 317 315 313 309 303 298 293 288 284 281 278 276 276 276 275 274 273 272 270 270 270 269 271 273 274 275 275 277 279 280 280 281 282 283 282 278 274 276 279 280 280 277 273 270 269 270 273 278 281 279 274 269
27 10 356 345 338 332 328 326 322 319 318 315 313 313 313 314 314 314 314 313 312 311 310 310 309 308 309 309 309 312 311 310 314 316 315 316 316 316 314 310 303 299 295 290 286 283 281 279 278 276 275 275 274 272 271 272 272 272 274 276 276 277 277 278 279 280 281 282 284 284 282 278 276 279 280 281 280 277 274 271 269 269 273 278 279 275 270 265
331 320 312 309 307 308 309 310 311 311 311 311 311 311 310 310 309 309 308 308 308 307 306 306 306 305 305 305 307 310 309 310 314 313 313 314 315 315 312 309 304 299 296 292 289 286 285 283 281 280 277 276 274 273 272 271 272 275 277 277 278 278 278 278 278 279 281 282 283 283 281 278 278 277 277 279 278 275 273 272 271 272 275 277 275 270 266 261
310 306 300 299 298 300 303 305 308 309 309 310 310 309 308 307 306 305 305 304 303 303 303 303 304 304 304 304 305 307 307 309 310 309 312 313 314 315 313 310 304 298 295 294 293 290 288 285 284 282 279 277 276 275 273 272 274 277 279 280 281 281 280 279 278 280 281 281 281 280 280 277 276 275 276 278 277 274 274 273 273 274 275 275 270 265 262 260
306 303 300 300 301 303 306 308 308 307 307 307 307 307 306 305 305 304 303 302 301 301 302 302 303 303 303 303 304 305 304 305 306 308 310 312 314 316 317 314 308 303 298 296 296 294 291 288 286 283 279 278 277 277 276 276 278 280 281 283 284 283 281 280 281 283 280 279 280 280 279 277 276 276 277 277 275 275 274 273 274 274 274 270 266 262 260 262
305 304 302 303 304 306 306 306 305 304 305 306 307 307 306 306 305 304 304 303 302 302 302 302 302 301 302 303 303 302 302 303 305 308 309 311 312 313 315 315 310 307 303 300 298 296 293 291 288 284 281 279 277 277 277 279 280 282 284 284 284 285 284 284 284 284 281 281 282 279 276 277 279 279 278 277 275 275 275 275 277 275 271 265 262 261 262 264
301 301 301 301 302 302 302 302 303 304 306 307 307 306 305 305 306 306 306 306 306 305 304 304 304 304 304 305 304 303 304 305 306 308 310 311 311 310 310 310 308 307 305 303 300 298 294 292 290 287 284 281 279 278 278 282 283 285 286 283 283 283 284 286 286 283 282 281 280 278 271 271 278 279 277 277 277 277 277 277 277 273 268 263 262 262 263 266
295 295 296 296 297 298 299 301 304 306 307 307 306 305 306 307 308 310 311 311 312 312 311 310 310 308 308 307 308 309 310 312 312 310 310 309 309 307 306 305 303 301 301 301 301 299 295 293 290 288 287 284 283 282 283 286 284 284 283 281 283 279 277 284 283 281 282 279 276 277 270 267 275 278 277 279 278 277 276 275 274 271 269 266 265 265 265 267
291 292 293 294 295 298 300 303 305 307 308 309 309 309 309 310 311 311 310 311 313 315 315 312 310 308 309 310 313 314 314 315 314 309 306 305 305 303 303 301 298 296 295 296 297 296 294 292 290 289 288 287 288 289 290 287 283 284 280 276 280 278 279 284 285 284 282 278 275 273 269 269 276 279 279 280 277 276 275 274 274 273 273 272 270 269 269 270
291 291 292 293 295 297 300 304 308 311 312 311 310 308 307 307 307 308 308 308 310 312 314 315 316 315 313 317 319 317 316 316 313 311 310 309 307 304 303 300 298 296 294 293 293 293 291 290 289 288 288 290 290 290 288 279 276 283 282 277 280 282 282 284 287 286 282 278 278 276 274 275 279 280 280 279 277 275 274 274 275 276 276 276 275 274 274 273
292 291 290 290 292 296 304 312 316 318 316 314 315 314 314 315 317 316 314 315 315 316 322 326 329 328 319 320 323 321 322 322 320 322 324 320 313 308 305 302 300 298 295 293 291 291 289 288 288 288 289 288 285 281 275 271 274 279 280 280 283 285 285 286 288 286 283 281 279 278 277 278 280 281 280 279 278 277 276 277 278 278 279 279 279 279 278 276
297 293 290 290 296 306 315 321 323 325 327 332 338 341 342 342 339 337 331 332 334 334 336 334 337 342 335 332 334 334 335 333 329 329 329 327 322 315 310 306 304 300 296 294 291 289 287 287 287 286 286 283 280 277 273 274 279 279 280 282 283 286 289 292 289 285 285 283 280 279 279 280 283 283 282 281 280 279 279 279 280 281 283 284 284 282 281 280
317 310 309 313 317 322 326 333 340 343 346 353 355 354 355 350 349 351 347 345 346 343 342 342 349 356 352 348 346 342 339 334 329 326 326 327 324 320 316 312 309 304 300 297 293 290 289 287 286 284 283 281 281 280 278 279 281 283 284 285 286 288 290 292 289 286 287 283 281 280 279 280 282 283 283 281 279 279 279 281 282 285 287 287 286 284 282 280
333 336 333 332 334 338 348 358 359 355 349 345 346 349 350 349 352 352 348 347 346 345 348 352 357 359 355 351 346 340 336 331 327 324 322 322 321 320 319 317 314 310 305 300 295 293 291 288 286 284 284 284 284 284 284 284 286 287 287 287 288 289 291 292 290 289 287 282 282 285 283 282 282 282 281 280 280 281 282 284 286 288 289 288 287 284 282 279
335 341 347 354 360 4 4 356 347 342 340 339 343 344 343 344 347 347 346 348 348 350 358 357 355 354 351 347 340 335 333 330 327 324 321 321 323 324 323 322 320 315 310 304 300 298 294 290 287 286 286 287 288 289 289 289 290 290 290 291 291 291 295 295 293 292 288 286 289 291 290 287 284 282 281 281 281 282 285 288 290 291 291 290 288 285 282 279
10 8 13 12 6 356 342 336 331 330 332 335 336 335 336 339 342 344 346 347 351 4 4 357 353 349 342 340 337 334 333 331 329 327 325 325 327 328 326 324 322 318 314 309 304 301 296 290 288 290 291 292 294 295 296 296 296 296 294 294 292 294 297 293 293 294 290 291 292 294 293 288 285 284 283 284 284 286 290 293 294 294 293 290 287 284 280 275
30 21 10 354 342 334 330 328 325 325 327 330 330 331 334 337 339 342 345 347 4 13 359 350 346 342 335 336 336 336 335 333 333 333 329 328 329 328 327 325 324 322 317 313 310 305 298 294 296 299 299 302 303 302 303 302 301 301 297 294 293 296 297 290 292 297 299 298 296 298 292 283 284 288 288 291 292 295 295 294 294 292 289 286 282 278 274 269
19 13 359 344 335 329 325 324 324 324 325 327 329 331 333 335 337 339 343 347 26 3 354 345 340 338 336 338 338 339 339 336 337 335 331 334 334 332 330 327 327 325 321 322 319 311 308 308 309 310 309 309 310 309 310 309 310 309 303 300 299 299 298 295 299 307 309 302 297 307 296 271 276 289 291 293 292 293 293 292 291 289 285 281 276 272 269 266
19 11 357 345 334 327 324 325 326 325 328 330 331 333 334 335 336 335 341 350 192 347 349 344 341 339 338 341 342 342 342 338 338 338 337 338 338 336 335 334 333 332 329 332 332 325 323 322 316 313 313 314 318 320 318 317 321 316 310 308 305 302 300 299 306 310 305 287 287 293 282 264 279 282 285 289 289 290 293 296 294 290 286 279 274 270 265 264
27 13 0 348 336 331 330 332 333 333 335 335 334 336 336 337 337 333 336 85 351 343 345 345 343 341 342 344 346 348 348 342 340 341 341 341 341 342 343 345 344 341 341 348 352 339 326 321 317 315 318 326 329 326 318 318 322 316 310 309 305 303 302 303 307 304 294 289 291 285 265 259 272 277 283 285 288 299 306 309 305 296 291 282 276 271 267 267
27 12 2 354 346 342 341 341 341 338 338 338 338 342 342 342 344 339 344 135 351 344 345 346 345 343 344 346 349 352 350 345 344 344 346 349 353 352 353 356 354 350 354 5 360 338 330 326 322 326 343 347 340 328 318 314 315 313 310 309 305 304 305 306 304 299 293 291 295 282 251 250 249 266 286 289 297 320 327 321 314 304 297 288 281 276 273 274
20 8 2 359 355 351 347 344 343 341 341 343 346 349 348 350 354 356 121 143 341 346 345 343 345 346 347 349 349 351 352 352 351 350 353 1 6 6 4 2 1 360 4 9 357 341 338 335 332 354 357 350 345 331 321 316 315 315 311 309 308 307 308 306 301 298 298 286 264 89 219 236 256 270 296 316 328 334 335 330 322 311 302 294 287 283 281 281
15 7 4 1 357 353 349 347 347 348 349 351 353 352 352 360 5 20 117 348 340 348 347 342 346 351 353 352 351 354 359 1 359 359 1 5 8 8 7 6 7 8 5 1 353 343 342 339 332 350 351 346 338 328 325 325 324 322 317 317 316 315 315 310 304 303 293 225 132 65 122 248 301 4 327 334 346 343 342 340 332 320 308 299 292 288 287 287
11 6 3 1 358 354 353 352 353 354 355 355 356 355 356 11 24 48 79 346 342 344 348 348 351 357 1 2 3 4 5 6 8 9 7 7 5 360 1 7 8 8 358 353 354 350 346 338 325 340 344 338 331 330 332 332 332 326 324 328 326 320 320 308 296 267 266 204 118 64 12 266 267 344 340 341 353 352 351 351 344 333 318 304 296 292 292 292
6 2 0 0 359 356 356 355 354 356 357 358 359 1 5 28 34 45 26 346 346 344 351 358 2 5 7 8 9 9 8 9 9 8 8 10 5 2 7 11 12 13 359 352 355 355 353 348 333 336 337 333 332 339 338 333 332 328 333 347 339 321 321 295 249 184 283 325 130 304 327 290 260 273 315 344 3 10 14 11 360 351 333 314 303 300 299 298
358 357 357 359 359 357 357 355 356 359 357 360 5 9 24 64 39 29 13 360 358 355 358 5 8 9 10 10 10 9 10 11 9 9 10 9 4 7 13 13 14 16 2 354 355 355 356 360 348 337 335 336 346 348 339 331 330 329 345 359 345 329 324 298 291 293 288 301 290 302 309 293 262 282 332 6 30 45 45 38 24 11 349 327 314 309 308 306
352 353 355 357 357 356 357 358 360 1 358 6 12 15 40 70 43 22 17 13 10 5 8 15 14 11 11 11 10 9 9 10 10 9 8 5 1 6 11 9 10 9 3 360 357 353 347 335 335 336 336 346 353 344 335 330 330 328 344 350 350 344 314 301 305 311 312 318 299 296 293 261 271 301 351 30 50 44 39 38 27 15 357 337 324 316 315 313
348 350 352 355 355 356 360 2 3 3 5 11 16 30 58 69 40 29 25 19 19 15 15 21 19 18 15 12 11 10 10 8 7 5 2 1 360 4 6 4 2 2 3 3 355 346 331 315 328 331 330 347 344 337 335 338 339 325 334 346 345 311 289 272 285 292 296 301 288 271 255 272 294 317 15 32 18 13 17 19 16 8 355 340 328 323 320 318
343 348 349 351 355 358 3 6 5 7 13 17 26 47 63 66 43 36 28 21 23 20 18 17 14 18 20 17 14 12 9 6 3 2 1 358 358 1 359 357 357 357 360 360 354 344 323 317 330 328 314 337 338 335 337 342 337 325 337 358 344 328 297 265 282 282 276 284 262 172 247 292 313 13 31 354 354 1 3 5 6 360 348 337 329 325 320 314
341 346 347 352 358 2 8 10 11 16 24 33 50 59 63 60 47 42 29 22 22 18 19 18 14 14 14 15 15 12 8 3 359 359 360 357 355 355 352 351 352 351 352 352 349 341 320 320 333 334 310 332 335 335 336 337 341 353 12 10 354 350 2 326 306 291 284 281 260 200 263 303 333 3 354 351 357 360 358 359 357 348 338 328 319 314 310 310
342 346 351 360 5 9 15 19 25 33 35 40 53 63 63 56 47 40 29 25 22 18 19 20 17 13 11 10 8 6 4 1 356 354 359 357 350 348 346 344 345 344 344 344 343 338 326 322 330 335 330 334 334 334 339 347 10 35 34 9 4 355 316 340 325 310 312 294 292 205 236 308 88 94 18 8 359 354 353 352 346 336 325 313 307 307 311 315
348 355 3 11 16 21 28 35 40 39 36 40 52 62 59 51 45 36 29 26 22 21 21 19 16 12 9 7 1 360 1 359 353 352 356 354 346 344 341 339 340 338 338 340 339 336 329 316 307 319 332 333 331 336 353 17 24 17 11 2 0 344 303 317 302 288 293 294 304 256 249 86 122 167 317 359 352 347 347 344 336 326 314 307 308 312 317 320
0 10 20 26 32 38 41 42 40 35 36 47 55 61 56 49 43 34 30 26 21 21 19 16 13 9 6 3 358 357 358 357 351 346 349 348 345 344 337 334 335 334 334 337 338 337 333 307 289 316 337 339 336 343 3 35 16 8 2 352 352 353 333 316 290 261 263 285 308 298 297 123 158 228 268 324 336 340 343 340 332 321 313 310 313 318 321 323
22 31 40 44 46 46 40 36 36 34 42 53 56 56 53 47 40 34 29 23 21 19 16 13 10 7 3 359 356 354 355 356 351 341 343 344 344 341 332 329 331 332 335 337 341 344 336 308 294 317 340 339 331 332 309 344 359 358 353 347 350 360 350 327 298 255 249 266 273 288 305 194 215 250 282 319 329 334 338 337 330 320 314 314 319 323 324 323
47 56 59 54 46 40 32 34 42 44 49 56 55 52 50 44 37 33 27 22 20 17 14 11 7 4 0 356 355 353 353 354 348 341 341 340 338 334 328 329 331 333 337 339 345 342 333 318 306 322 337 329 321 324 284 306 341 345 343 344 349 353 351 324 289 294 283 280 273 269 276 241 245 259 287 314 324 330 332 333 326 318 316 319 323 323 322 320
66 72 64 49 42 39 32 40 52 52 54 56 53 50 48 42 36 31 26 22 18 15 13 9 4 2 359 355 354 352 353 351 344 342 341 336 334 332 329 331 333 335 340 344 345 342 337 330 323 329 338 328 313 313 294 311 332 337 338 342 343 339 336 311 283 286 282 274 267 262 249 233 251 269 293 312 321 325 327 327 322 318 319 321 321 320 319 319
70 72 59 45 43 43 41 52 58 56 55 54 51 49 45 40 35 30 25 21 18 15 10 5 2 360 358 355 353 352 354 351 343 343 341 334 334 333 331 333 335 338 343 345 346 348 345 337 330 332 338 331 308 302 305 316 327 333 334 333 330 326 324 314 293 289 276 255 253 271 277 254 272 289 303 313 319 320 320 321 319 317 317 318 318 318 318 319
64 64 56 49 49 48 50 57 58 55 54 53 50 47 44 38 33 29 25 20 17 14 9 4 2 359 357 357 354 353 355 351 345 343 341 337 335 334 333 337 339 340 344 346 349 350 344 339 339 339 335 324 316 310 306 309 318 327 326 321 321 320 320 322 306 291 272 268 265 267 280 288 290 298 307 313 314 315 316 317 316 315 316 317 318 318 319 319
60 64 63 58 55 52 54 57 56 54 53 49 47 46 41 36 31 27 24 20 16 13 9 4 1 359 358 358 356 355 353 349 346 344 342 340 339 336 337 340 342 343 346 348 350 349 345 342 339 335 324 314 308 303 305 308 314 322 320 319 321 321 328 13 333 301 289 291 282 274 287 293 296 304 309 310 310 312 314 314 314 316 318 319 319 319 319 320
67 69 68 66 59 53 53 55 55 53 50 46 44 43 38 34 30 26 23 19 15 12 8 3 1 359 358 357 355 354 351 348 347 346 343 343 341 337 337 342 344 346 349 351 351 349 346 341 335 332 329 323 315 313 320 320 319 322 322 326 339 343 344 346 328 314 309 304 293 295 303 305 307 310 309 309 311 313 314 316 317 319 320 320 320 320 321 321
73 72 67 64 62 58 54 54 53 51 48 43 41 40 36 32 30 27 23 18 15 12 7 3 0 358 358 357 354 351 349 348 349 348 345 344 342 339 338 341 343 345 349 350 349 346 343 338 333 333 337 334 328 334 336 330 327 325 324 349 16 342 312 326 332 333 326 310 299 305 309 310 311 310 309 311 313 314 316 318 321 322 321 320 321 321 322 323
73 72 67 62 61 60 57 54 52 49 46 41 39 38 34 31 29 26 22 17 14 11 7 3 0 358 357 356 354 351 350 348 347 348 347 345 343 342 342 343 341 342 347 348 346 345 343 340 335 336 344 343 337 343 339 329 327 322 312 49 8 340 327 338 342 335 325 308 302 306 309 311 311 308 309 312 314 316 319 321 322 321 320 321 321 322 323 322
70 69 66 60 58 60 57 53 51 47 43 40 38 36 33 30 27 24 21 17 13 10 6 3 360 358 357 356 354 352 350 348 346 345 346 346 345 344 347 349 342 343 348 347 346 346 345 343 339 339 346 350 344 343 336 328 326 308 176 10 352 339 333 342 336 327 319 311 311 313 313 313 312 311 312 315 318 320 322 322 321 321 321 322 322 322 323 322
68 67 66 60 58 61 58 53 51 46 42 41 39 36 33 29 26 23 20 17 13 9 6 2 359 358 356 355 353 351 349 348 345 344 344 345 346 346 349 352 345 344 347 346 347 349 348 348 347 344 346 347 342 341 335 329 325 232 211 335 337 326 320 324 323 321 317 316 317 318 316 314 313 315 317 319 321 322 322 322 322 322 323 323 323 323 323 323
66 66 67 61 59 63 60 54 52 47 43 42 39 35 33 28 25 22 19 16 13 9 5 2 359 358 356 354 353 351 349 347 345 345 345 344 345 346 347 348 344 343 346 348 351 353 354 355 355 350 343 338 341 343 336 327 311 203 287 321 321 311 306 311 314 315 315 318 319 317 314 312 313 317 320 322 323 322 322 323 323 323 324 324 324 324 324 324
Height
3156 3156 3157 3157 3158 3158 3159 3159 3159 3159 3160 3160 3159 3159 3159 3159 3159 3159 3159 3159 3159 3158 3158 3158 3158 3157 3157 3156 3156 3156 3155 3155 3154 3154 3154 3153 3153 3153 3152 3152 3152 3151 3151 3151 3151 3151 3150 3150 3150 3150 3149 3149 3149 3148 3148 3147 3147 3147 3147 3146 3145 3144 3144 3144 3144 3143 3143 3142 3142 3141 3141 3141 3140 3140 3140 3140 3140 3140 3140 3140 3140 3139 3138 3138 3137 3137 3136 3136
3156 3157 3157 3158 3158 3159 3159 3160 3160 3160 3160 3160 3160 3160 3160 3160 3160 3159 3159 3159 3159 3159 3159 3158 3158 3158 3157 3156 3156 3155 3155 3154 3154 3153 3153 3153 3152 3152 3152 3151 3151 3151 3150 3150 3150 3150 3149 3149 3149 3149 3148 3148 3147 3147 3147 3146 3146 3146 3145 3144 3143 3142 3142 3142 3142 3141 3141 3140 3140 3139 3139 3139 3139 3139 3139 3139 3138 3138 3138 3138 3137 3137 3136 3136 3135 3135 3135 3134
3157 3157 3158 3158 3159 3159 3160 3160 3160 3160 3161 3161 3160 3160 3160 3160 3160 3160 3160 3160 3159 3159 3159 3158 3158 3158 3157 3156 3156 3155 3154 3154 3154 3153 3153 3152 3152 3151 3151 3150 3150 3150 3149 3149 3149 3148 3148 3148 3148 3147 3147 3146 3146 3145 3145 3144 3144 3144 3143 3142 3141 3141 3141 3140 3140 3139 3139 3138 3138 3138 3137 3137 3137 3137 3137 3137 3137 3137 3136 3135 3135 3134 3134 3134 3134 3133 3133 3133
3158 3158 3159 3159 3160 3160 3160 3160 3161 3161 3161 3161 3161 3161 3160 3160 3160 3160 3160 3160 3159 3159 3159 3158 3158 3157 3157 3156 3156 3155 3154 3154 3153 3153 3152 3151 3151 3150 3150 3149 3149 3148 3148 3147 3147 3147 3147 3146 3146 3146 3145 3144 3144 3144 3143 3143 3142 3142 3141 3140 3140 3139 3139 3138 3138 3137 3137 3136 3136 3136 3135 3135 3135 3135 3135 3135 3135 3134 3134 3133 3133 3132 3132 3132 3132 3131 3131 3130
3159 3159 3160 3160 3160 3161 3161 3161 3161 3161 3161 3161 3161 3161 3161 3160 3160 3160 3160 3159 3159 3159 3158 3158 3157 3157 3156 3156 3155 3155 3154 3153 3152 3152 3151 3150 3150 3149 3148 3148 3147 3147 3146 3146 3145 3145 3145 3145 3144 3144 3143 3142 3142 3142 3141 3141 3140 3139 3139 3138 3138 3137 3136 3136 3136 3135 3135 3135 3134 3134 3134 3133 3133 3133 3133 3133 3132 3132 3131 3131 3131 3130 3130 3130 3129 3129 3128 3127
3160 3160 3160 3161 3161 3161 3161 3161 3161 3161 3161 3161 3161 3161 3161 3160 3160 3160 3159 3159 3159 3158 3158 3157 3157 3156 3155 3155 3154 3154 3153 3152 3152 3151 3150 3149 3148 3147 3147 3146 3145 3145 3144 3144 3143 3143 3143 3142 3142 3142 3141 3141 3140 3140 3139 3139 3138 3137 3137 3136 3136 3135 3135 3134 3134 3134 3133 3133 3133 3132 3132 3132 3131 3131 3131 3130 3130 3129 3129 3129 3129 3128 3128 3127 3127 3126 3125 3124
3160 3161 3161 3161 3161 3161 3161 3161 3161 3161 3161 3161 3161 3161 3161 3160 3160 3159 3159 3158 3158 3158 3157 3156 3156 3155 3154 3154 3153 3152 3152 3151 3150 3149 3148 3148 3147 3146 3145 3145 3144 3143 3142 3142 3141 3141 3140 3140 3140 3139 3139 3139 3138 3138 3137 3137 3136 3136 3135 3134 3134 3133 3133 3132 3132 3132 3131 3131 3131 3130 3130 3130 3129 3129 3128 3128 3127 3127 3127 3127 3126 3126 3125 3125 3124 3123 3122 3122
3161 3161 3161 3161 3161 3161 3161 3161 3161 3161 3161 3161 3160 3160 3160 3160 3159 3159 3158 3158 3157 3157 3156 3155 3155 3154 3153 3152 3151 3151 3150 3149 3148 3147 3146 3146 3145 3144 3144 3143 3142 3141 3141 3140 3139 3139 3139 3138 3138 3137 3137 3137 3136 3136 3135 3135 3134 3134 3133 3133 3132 3132 3131 3131 3130 3130 3130 3129 3129 3128 3128 3128 3127 3127 3126 3125 3125 3125 3124 3124 3124 3123 3123 3122 3122 3121 3120 3119
3161 3162 3162 3162 3161 3161 3161 3161 3160 3160 3160 3160 3160 3159 3159 3159 3158 3158 3157 3156 3156 3155 3155 3154 3153 3152 3151 3151 3150 3149 3148 3147 3146 3145 3144 3144 3143 3143 3142 3141 3140 3140 3139 3138 3138 3137 3137 3136 3136 3135 3135 3135 3134 3134 3134 3133 3132 3131 3131 3131 3130 3130 3129 3129 3129 3128 3128 3127 3127 3126 3126 3125 3125 3124 3123 3123 3123 3122 3121 3122 3121 3121 3120 3120 3119 3118 3117 3117
3161 3162 3161 3161 3161 3161 3160 3160 3160 3159 3159 3159 3158 3158 3158 3157 3157 3156 3156 3155 3154 3153 3153 3152 3151 3150 3149 3149 3148 3148 3146 3146 3145 3144 3143 3142 3141 3141 3140 3139 3138 3138 3137 3137 3136 3135 3135 3135 3134 3134 3133 3133 3132 3132 3132 3131 3130 3130 3129 3129 3128 3128 3127 3127 3127 3126 3126 3125 3125 3124 3124 3123 3123 3122 3120 3120 3120 3119 3119 3119 3119 3118 3118 3117 3116 3116 3115 3115
3161 3161 3161 3161 3161 3160 3160 3160 3159 3159 3158 3158 3157 3157 3156 3156 3155 3155 3154 3153 3153 3152 3151 3150 3150 3149 3147 3147 3146 3146 3144 3144 3143 3142 3141 3140 3139 3139 3138 3137 3136 3136 3135 3135 3134 3134 3133 3133 3132 3132 3131 3131 3131 3130 3130 3129 3128 3128 3128 3127 3127 3126 3125 3125 3125 3124 3124 3123 3122 3122 3121 3120 3119 3119 3118 3118 3117 3117 3116 3116 3116 3116 3115 3115 3114 3114 3113 3113
3161 3161 3161 3161 3160 3160 3160 3159 3159 3158 3157 3157 3156 3155 3155 3154 3153 3153 3152 3151 3151 3150 3149 3148 3148 3147 3146 3145 3145 3144 3143 3142 3141 3140 3140 3139 3138 3137 3136 3135 3134 3134 3133 3133 3132 3132 3131 3131 3131 3130 3130 3129 3129 3128 3127 3127 3127 3126 3126 3125 3125 3124 3123 3123 3123 3122 3121 3120 3120 3120 3118 3117 3116 3116 3116 3116 3115 3114 3114 3114 3114 3113 3113 3112 3112 3112 3112 3111
3161 3161 3160 3160 3160 3160 3159 3159 3158 3157 3157 3156 3155 3154 3154 3153 3152 3151 3150 3150 3149 3148 3148 3147 3146 3145 3144 3143 3142 3142 3141 3140 3139 3139 3138 3137 3136 3135 3134 3133 3132 3132 3131 3131 3130 3130 3129 3129 3129 3128 3128 3127 3127 3127 3125 3125 3125 3124 3124 3123 3123 3122 3121 3121 3121 3120 3119 3118 3118 3118 3117 3115 3114 3114 3114 3113 3113 3113 3112 3112 3111 3111 3111 3110 3110 3110 3110 3109
3160 3160 3160 3160 3159 3159 3159 3158 3157 3157 3156 3155 3154 3153 3152 3151 3151 3150 3149 3148 3148 3147 3146 3145 3145 3143 3143 3142 3141 3140 3139 3139 3138 3137 3136 3135 3134 3133 3132 3132 3130 3130 3130 3129 3129 3128 3128 3127 3127 3126 3126 3126 3125 3125 3124 3123 3123 3123 3122 3121 3121 3121 3119 3118 3119 3118 3117 3117 3116 3116 3115 3113 3112 3112 3112 3111 3111 3110 3110 3109 3109 3109 3109 3109 3108 3108 3108 3107
3160 3160 3160 3159 3159 3158 3158 3157 3156 3156 3155 3154 3153 3152 3151 3150 3149 3148 3148 3147 3146 3145 3145 3144 3143 3142 3141 3140 3139 3139 3138 3137 3137 3135 3134 3133 3132 3131 3130 3130 3129 3128 3128 3128 3127 3127 3126 3126 3125 3125 3124 3124 3123 3123 3122 3121 3121 3121 3120 3119 3119 3119 3118 3117 3117 3116 3115 3115 3114 3114 3114 3111 3110 3110 3110 3109 3109 3108 3108 3107 3107 3107 3107 3107 3106 3106 3105 3105
3159 3159 3159 3158 3158 3157 3157 3156 3155 3155 3154 3153 3152 3152 3151 3149 3149 3148 3147 3146 3145 3144 3143 3143 3142 3141 3140 3139 3138 3138 3137 3136 3135 3134 3133 3132 3130 3129 3129 3128 3127 3127 3126 3126 3126 3125 3124 3124 3123 3123 3122 3122 3122 3121 3120 3119 3118 3118 3118 3117 3117 3117 3116 3115 3115 3115 3114 3113 3112 3112 3111 3109 3108 3108 3108 3107 3107 3106 3106 3105 3105 3105 3105 3104 3104 3103 3103 3102
3158 3158 3157 3157 3157 3156 3156 3155 3155 3154 3153 3152 3152 3151 3150 3149 3148 3147 3146 3145 3144 3143 3143 3142 3141 3140 3139 3138 3138 3137 3135 3134 3134 3132 3131 3130 3129 3128 3127 3126 3125 3125 3124 3124 3124 3123 3123 3122 3122 3121 3121 3120 3120 3119 3119 3118 3117 3116 3116 3115 3115 3114 3114 3114 3113 3112 3112 3111 3110 3110 3109 3107 3106 3106 3105 3105 3104 3104 3103 3103 3102 3102 3102 3101 3100 3100 3099 3099
3157 3156 3156 3156 3155 3155 3155 3155 3154 3153 3153 3152 3150 3150 3149 3148 3147 3146 3145 3144 3143 3142 3142 3141 3140 3139 3138 3137 3136 3135 3134 3133 3132 3131 3130 3129 3128 3126 3125 3124 3124 3123 3123 3122 3122 3121 3121 3120 3120 3119 3119 3118 3118 3117 3117 3116 3115 3115 3114 3113 3112 3111 3111 3112 3111 3110 3109 3109 3108 3107 3106 3104 3104 3103 3103 3102 3102 3101 3100 3100 3099 3099 3098 3098 3097 3097 3096 3096
3156 3156 3155 3155 3155 3155 3154 3154 3154 3153 3152 3151 3150 3149 3148 3147 3147 3146 3144 3143 3142 3141 3141 3140 3139 3138 3137 3136 3135 3134 3133 3132 3131 3130 3129 3128 3127 3126 3124 3123 3122 3122 3121 3120 3120 3120 3119 3118 3118 3118 3117 3116 3115 3115 3114 3113 3112 3112 3112 3111 3110 3109 3108 3109 3108 3107 3107 3106 3105 3104 3103 3102 3101 3101 3100 3100 3099 3098 3098 3097 3097 3096 3095 3095 3094 3094 3094 3094
3156 3155 3155 3155 3155 3154 3154 3154 3153 3152 3151 3150 3150 3149 3148 3147 3146 3145 3143 3142 3141 3141 3140 3139 3138 3137 3136 3135 3134 3133 3132 3131 3130 3129 3128 3127 3126 3125 3124 3122 3121 3120 3120 3119 3118 3118 3117 3117 3116 3116 3115 3114 3113 3113 3112 3111 3110 3110 3109 3108 3107 3107 3106 3106 3105 3104 3104 3103 3101 3101 3100 3099 3099 3098 3098 3097 3096 3096 3095 3094 3094 3093 3093 3092 3092 3092 3091 3092
3156 3155 3155 3155 3154 3154 3154 3153 3153 3152 3151 3150 3150 3148 3147 3146 3145 3143 3142 3141 3140 3140 3139 3138 3137 3137 3136 3135 3134 3133 3132 3131 3129 3128 3127 3126 3125 3124 3123 3122 3121 3120 3119 3118 3117 3117 3116 3115 3114 3114 3113 3112 3111 3110 3110 3109 3108 3108 3107 3106 3105 3105 3104 3103 3102 3102 3101 3100 3099 3098 3098 3097 3097 3096 3095 3095 3094 3093 3092 3091 3091 3090 3090 3090 3090 3090 3090 3090
3155 3155 3155 3154 3154 3154 3153 3153 3152 3152 3151 3150 3149 3147 3146 3145 3144 3143 3142 3141 3140 3139 3139 3138 3137 3136 3136 3135 3134 3133 3131 3130 3129 3127 3126 3125 3124 3123 3122 3121 3120 3119 3118 3117 3116 3116 3115 3114 3113 3112 3111 3110 3109 3109 3108 3107 3106 3106 3105 3104 3103 3103 3102 3101 3100 3099 3099 3098 3097 3096 3095 3094 3094 3093 3092 3092 3091 3090 3089 3089 3088 3088 3088 3088 3088 3088 3088 3089
3155 3155 3154 3154 3154 3154 3153 3153 3152 3151 3150 3149 3148 3147 3146 3144 3143 3142 3141 3140 3140 3139 3138 3138 3137 3136 3135 3134 3133 3132 3131 3129 3128 3127 3126 3125 3124 3122 3121 3120 3119 3118 3117 3116 3115 3114 3113 3112 3111 3110 3109 3108 3108 3107 3106 3105 3105 3104 3103 3102 3101 3100 3100 3099 3098 3098 3097 3097 3095 3094 3092 3090 3090 3090 3089 3089 3088 3087 3087 3087 3086 3086 3086 3087 3087 3087 3088 3088
3155 3155 3154 3154 3154 3153 3153 3152 3151 3150 3149 3148 3147 3146 3145 3143 3142 3141 3141 3140 3139 3139 3138 3137 3137 3136 3135 3134 3132 3131 3130 3128 3127 3126 3125 3124 3123 3121 3120 3119 3118 3117 3116 3115 3114 3113 3112 3110 3109 3109 3108 3107 3106 3105 3104 3104 3103 3102 3101 3101 3100 3099 3098 3098 3097 3096 3095 3094 3093 3093 3090 3087 3087 3087 3086 3086 3086 3086 3086 3085 3086 3086 3086 3086 3086 3087 3087 3087
3155 3155 3155 3154 3154 3153 3152 3151 3150 3149 3148 3147 3146 3145 3144 3143 3142 3141 3140 3139 3139 3139 3138 3138 3137 3136 3135 3133 3132 3130 3129 3128 3127 3125 3124 3123 3121 3120 3119 3118 3117 3115 3114 3113 3112 3111 3110 3109 3108 3107 3107 3106 3105 3104 3103 3102 3101 3100 3099 3099 3098 3097 3097 3096 3095 3094 3093 3092 3091 3092 3090 3085 3085 3086 3085 3085 3085 3085 3085 3085 3085 3085 3085 3085 3086 3086 3086 3086
3155 3155 3154 3154 3153 3152 3151 3150 3149 3148 3147 3146 3145 3144 3143 3142 3141 3140 3140 3139 3139 3139 3138 3137 3136 3135 3134 3133 3131 3130 3128 3127 3126 3124 3123 3122 3120 3119 3118 3117 3116 3114 3113 3112 3111 3110 3109 3108 3107 3106 3105 3104 3104 3103 3102 3101 3100 3100 3098 3098 3097 3096 3095 3094 3094 3094 3093 3091 3090 3091 3090 3086 3085 3086 3085 3085 3084 3084 3084 3084 3084 3084 3084 3085 3085 3085 3085 3085
3155 3155 3154 3154 3153 3152 3150 3149 3148 3147 3146 3145 3144 3143 3142 3141 3140 3139 3139 3139 3139 3139 3138 3137 3136 3135 3133 3132 3131 3129 3128 3127 3125 3124 3122 3121 3119 3118 3117 3116 3115 3113 3112 3111 3110 3110 3109 3107 3106 3105 3104 3103 3103 3102 3101 3100 3100 3099 3098 3097 3096 3095 3094 3093 3092 3092 3091 3089 3088 3088 3088 3087 3085 3084 3084 3084 3084 3083 3084 3084 3083 3084 3084 3084 3084 3084 3084 3084
3155 3155 3154 3153 3152 3151 3150 3149 3148 3146 3145 3144 3143 3142 3141 3140 3139 3138 3138 3139 3140 3139 3138 3137 3136 3134 3133 3131 3130 3129 3128 3126 3125 3123 3122 3120 3119 3118 3116 3115 3114 3113 3112 3111 3110 3109 3108 3106 3105 3104 3104 3103 3102 3101 3100 3100 3099 3098 3096 3095 3094 3093 3092 3091 3090 3089 3088 3087 3087 3085 3086 3086 3084 3083 3083 3083 3083 3083 3083 3083 3083 3083 3083 3083 3084 3084 3084 3083
3155 3155 3154 3153 3151 3150 3149 3148 3147 3146 3145 3143 3142 3141 3140 3139 3138 3138 3138 3139 3140 3139 3138 3137 3136 3134 3133 3131 3130 3128 3127 3126 3124 3123 3121 3120 3119 3118 3116 3116 3114 3113 3112 3111 3110 3109 3107 3106 3105 3104 3104 3103 3102 3101 3100 3099 3098 3096 3095 3094 3093 3091 3090 3089 3087 3086 3086 3086 3086 3085 3085 3085 3082 3082 3083 3083 3083 3084 3083 3083 3083 3083 3083 3083 3083 3083 3083 3082
3155 3154 3153 3152 3151 3150 3149 3148 3146 3145 3144 3143 3142 3141 3140 3139 3138 3138 3138 3139 3140 3139 3138 3137 3135 3134 3133 3131 3130 3129 3127 3125 3124 3122 3121 3120 3119 3118 3117 3116 3115 3113 3113 3112 3110 3108 3106 3105 3104 3104 3103 3102 3101 3100 3099 3098 3097 3095 3094 3092 3091 3089 3087 3086 3085 3085 3085 3084 3085 3084 3085 3085 3083 3082 3083 3083 3083 3083 3083 3083 3082 3082 3082 3082 3082 3082 3082 3081
3155 3154 3153 3152 3151 3149 3148 3147 3146 3145 3144 3143 3142 3141 3140 3139 3138 3138 3140 3141 3140 3139 3138 3136 3135 3134 3133 3132 3130 3129 3127 3126 3125 3123 3122 3120 3119 3118 3117 3116 3115 3113 3112 3111 3110 3108 3106 3105 3104 3104 3103 3102 3101 3099 3098 3097 3096 3095 3093 3091 3089 3087 3086 3085 3084 3085 3083 3082 3084 3084 3085 3085 3083 3082 3083 3083 3083 3083 3082 3082 3081 3081 3081 3081 3081 3081 3080 3080
3155 3154 3152 3151 3150 3149 3148 3147 3145 3144 3144 3143 3142 3141 3140 3139 3139 3140 3141 3141 3139 3138 3137 3136 3135 3134 3132 3131 3130 3129 3127 3126 3125 3123 3122 3121 3119 3118 3117 3115 3114 3113 3112 3110 3109 3107 3106 3105 3104 3104 3103 3101 3100 3099 3098 3096 3095 3094 3092 3091 3089 3087 3086 3084 3083 3083 3082 3082 3084 3085 3084 3084 3083 3082 3083 3083 3082 3081 3081 3081 3081 3080 3080 3080 3080 3079 3079 3078
3154 3153 3152 3151 3150 3149 3147 3146 3145 3144 3143 3142 3141 3140 3139 3139 3140 3141 3141 3140 3139 3139 3137 3136 3135 3134 3133 3131 3130 3129 3127 3126 3125 3123 3122 3121 3119 3118 3117 3116 3115 3114 3113 3111 3109 3107 3106 3105 3104 3103 3102 3100 3100 3099 3097 3096 3094 3093 3092 3091 3090 3088 3088 3086 3083 3083 3083 3083 3084 3084 3084 3083 3082 3082 3083 3082 3081 3081 3080 3080 3080 3079 3079 3079 3079 3078 3078 3077
3154 3153 3152 3151 3149 3148 3147 3146 3145 3144 3143 3142 3141 3140 3139 3140 3141 3142 3141 3140 3139 3138 3137 3136 3135 3134 3133 3132 3130 3129 3127 3126 3125 3123 3122 3121 3120 3119 3118 3117 3116 3115 3114 3112 3110 3108 3107 3105 3104 3103 3101 3100 3099 3098 3097 3095 3093 3092 3091 3091 3091 3090 3090 3088 3084 3084 3084 3084 3084 3083 3083 3082 3081 3082 3082 3081 3081 3080 3079 3079 3078 3078 3078 3078 3078 3077 3077 3076
3154 3153 3152 3151 3149 3148 3147 3146 3145 3144 3143 3142 3141 3140 3140 3141 3142 3142 3141 3140 3139 3138 3137 3136 3136 3135 3133 3132 3131 3129 3128 3126 3125 3124 3123 3122 3120 3119 3118 3117 3116 3115 3113 3112 3110 3109 3107 3105 3103 3102 3101 3100 3098 3097 3096 3094 3093 3092 3091 3091 3091 3090 3090 3088 3085 3085 3086 3085 3083 3082 3082 3081 3081 3082 3081 3080 3080 3079 3078 3078 3077 3077 3077 3077 3076 3075 3075 3074
3154 3152 3151 3150 3149 3148 3147 3146 3145 3144 3143 3142 3141 3140 3140 3141 3142 3141 3141 3140 3139 3138 3137 3136 3136 3135 3134 3132 3131 3129 3128 3127 3125 3124 3123 3121 3120 3119 3118 3117 3115 3114 3113 3112 3111 3109 3107 3104 3103 3101 3100 3099 3098 3096 3095 3094 3093 3092 3091 3091 3090 3089 3089 3088 3086 3085 3085 3084 3081 3081 3081 3081 3081 3081 3080 3079 3078 3077 3077 3076 3076 3076 3075 3075 3074 3074 3072 3071
3153 3152 3151 3150 3149 3148 3147 3146 3145 3144 3143 3142 3141 3141 3141 3142 3142 3141 3141 3140 3139 3138 3137 3136 3136 3134 3133 3132 3131 3130 3128 3127 3126 3124 3123 3121 3120 3119 3118 3117 3115 3114 3113 3112 3111 3110 3107 3104 3101 3101 3100 3098 3097 3095 3094 3093 3092 3091 3091 3090 3089 3088 3088 3087 3086 3084 3083 3081 3080 3080 3081 3080 3080 3080 3079 3078 3077 3077 3076 3076 3075 3075 3074 3073 3072 3071 3070 3068
3153 3152 3151 3150 3149 3148 3147 3146 3145 3144 3143 3142 3141 3141 3142 3142 3142 3142 3141 3140 3140 3139 3138 3137 3136 3135 3134 3132 3131 3130 3128 3127 3125 3124 3123 3121 3120 3119 3118 3116 3115 3113 3112 3111 3110 3108 3107 3104 3101 3100 3099 3098 3096 3095 3094 3093 3091 3091 3091 3090 3089 3088 3087 3087 3086 3084 3083 3082 3080 3079 3079 3080 3080 3079 3079 3078 3077 3076 3076 3075 3074 3073 3073 3072 3070 3069 3067 3065
3152 3151 3150 3150 3149 3148 3147 3146 3145 3144 3143 3143 3142 3142 3142 3142 3142 3142 3141 3141 3140 3139 3138 3137 3136 3135 3134 3133 3131 3130 3128 3126 3125 3124 3123 3121 3120 3119 3117 3116 3115 3113 3111 3110 3109 3107 3106 3104 3101 3099 3099 3097 3095 3095 3094 3093 3092 3091 3090 3090 3089 3089 3088 3087 3086 3085 3085 3082 3080 3079 3078 3078 3079 3078 3078 3077 3076 3076 3075 3074 3073 3072 3071 3069 3068 3066 3063 3060
3152 3151 3150 3149 3149 3148 3147 3146 3145 3145 3144 3143 3143 3143 3143 3143 3143 3142 3142 3141 3140 3139 3138 3138 3137 3135 3134 3133 3131 3129 3128 3126 3125 3124 3123 3121 3120 3118 3117 3115 3114 3112 3110 3109 3107 3106 3105 3104 3102 3099 3098 3097 3095 3094 3093 3093 3092 3091 3090 3089 3088 3088 3087 3086 3085 3085 3084 3082 3081 3081 3078 3077 3078 3077 3076 3076 3075 3074 3073 3072 3071 3070 3068 3067 3064 3062 3059 3055
3152 3151 3150 3150 3149 3148 3147 3146 3146 3145 3144 3143 3143 3143 3144 3143 3143 3143 3142 3141 3140 3139 3139 3138 3137 3135 3134 3133 3131 3129 3128 3126 3125 3124 3122 3121 3120 3118 3116 3115 3113 3111 3110 3108 3106 3105 3104 3103 3101 3099 3098 3096 3095 3094 3093 3092 3092 3091 3090 3089 3088 3087 3087 3086 3084 3083 3084 3083 3082 3082 3078 3076 3076 3075 3075 3074 3073 3072 3071 3070 3069 3067 3065 3063 3061 3057 3054 3050
3152 3151 3151 3150 3149 3149 3148 3147 3146 3146 3145 3144 3144 3144 3144 3144 3143 3143 3142 3142 3141 3140 3139 3138 3137 3135 3134 3132 3131 3129 3127 3126 3125 3123 3122 3120 3119 3118 3116 3114 3112 3110 3109 3107 3106 3105 3103 3102 3100 3099 3097 3096 3094 3093 3092 3092 3091 3090 3090 3089 3087 3087 3086 3086 3085 3083 3083 3082 3082 3081 3079 3076 3074 3074 3073 3073 3071 3070 3069 3067 3066 3064 3062 3059 3056 3053 3049 3046
3152 3151 3151 3151 3150 3149 3148 3148 3147 3146 3146 3145 3145 3145 3145 3144 3144 3143 3143 3142 3141 3140 3139 3138 3137 3135 3134 3132 3130 3129 3127 3125 3124 3123 3121 3120 3118 3117 3115 3113 3111 3109 3108 3107 3105 3104 3102 3101 3100 3098 3096 3095 3093 3093 3092 3091 3090 3089 3088 3087 3087 3086 3085 3085 3084 3083 3083 3081 3080 3080 3078 3074 3073 3073 3072 3071 3069 3068 3066 3065 3063 3061 3058 3056 3052 3049 3045 3041
3152 3152 3151 3151 3150 3150 3149 3148 3147 3147 3147 3146 3146 3146 3145 3145 3144 3144 3143 3142 3141 3140 3139 3138 3137 3135 3134 3132 3130 3129 3127 3125 3124 3122 3121 3119 3117 3115 3113 3112 3110 3108 3107 3106 3105 3104 3102 3101 3099 3097 3095 3094 3092 3092 3091 3091 3090 3089 3088 3086 3086 3085 3084 3083 3083 3082 3082 3080 3080 3079 3076 3073 3073 3072 3071 3069 3067 3066 3064 3062 3060 3058 3055 3052 3049 3045 3041 3037
3153 3152 3152 3152 3151 3151 3150 3149 3148 3148 3147 3147 3147 3146 3146 3145 3145 3144 3143 3142 3141 3140 3139 3138 3136 3135 3133 3132 3130 3128 3127 3125 3123 3121 3120 3118 3116 3114 3112 3111 3109 3108 3107 3106 3105 3104 3102 3101 3099 3098 3097 3095 3093 3093 3092 3091 3090 3088 3087 3086 3084 3083 3082 3082 3082 3082 3081 3079 3079 3078 3075 3073 3073 3071 3069 3068 3066 3064 3062 3060 3057 3055 3052 3048 3044 3040 3036 3033
3153 3153 3153 3152 3152 3151 3150 3149 3149 3149 3148 3148 3148 3147 3147 3146 3145 3144 3143 3142 3141 3140 3139 3137 3136 3135 3133 3131 3130 3128 3126 3124 3123 3121 3119 3117 3115 3113 3111 3110 3108 3107 3106 3105 3104 3103 3102 3100 3099 3098 3097 3096 3094 3093 3091 3090 3089 3088 3086 3085 3083 3082 3082 3081 3081 3081 3080 3078 3077 3076 3075 3074 3072 3070 3068 3066 3064 3062 3059 3057 3054 3051 3048 3044 3040 3035 3031 3027
3154 3153 3153 3153 3153 3152 3151 3151 3151 3150 3149 3149 3148 3148 3147 3146 3145 3145 3144 3143 3141 3140 3139 3137 3136 3134 3132 3131 3129 3127 3126 3124 3122 3120 3118 3117 3114 3112 3110 3109 3108 3107 3106 3105 3104 3102 3101 3100 3098 3097 3096 3095 3093 3092 3090 3089 3088 3086 3085 3083 3082 3082 3081 3081 3081 3080 3079 3078 3076 3074 3073 3072 3071 3068 3065 3063 3061 3058 3056 3054 3050 3047 3043 3039 3035 3030 3026 3022
3155 3154 3154 3154 3154 3153 3153 3152 3151 3151 3150 3150 3149 3148 3148 3147 3146 3145 3144 3142 3141 3140 3138 3137 3135 3133 3132 3130 3128 3126 3125 3123 3121 3120 3118 3116 3114 3112 3110 3108 3107 3106 3105 3104 3103 3102 3101 3099 3098 3096 3095 3093 3092 3091 3089 3088 3086 3084 3083 3082 3082 3081 3081 3080 3079 3078 3078 3077 3075 3073 3071 3070 3068 3065 3062 3060 3058 3055 3053 3049 3046 3042 3038 3034 3030 3026 3022 3018
3156 3155 3155 3155 3154 3154 3153 3153 3152 3152 3151 3150 3150 3149 3148 3147 3146 3145 3144 3143 3141 3140 3138 3137 3135 3133 3131 3129 3127 3125 3123 3121 3119 3118 3116 3115 3113 3111 3109 3108 3107 3106 3105 3104 3103 3101 3100 3098 3097 3095 3094 3093 3091 3090 3088 3086 3084 3082 3082 3081 3081 3081 3080 3079 3078 3077 3076 3075 3074 3072 3069 3067 3065 3062 3059 3057 3055 3052 3049 3045 3041 3037 3034 3030 3026 3021 3018 3014
3157 3156 3156 3156 3155 3154 3154 3154 3153 3152 3152 3151 3150 3149 3148 3147 3146 3145 3144 3143 3141 3140 3138 3137 3135 3133 3131 3129 3127 3125 3122 3120 3118 3116 3115 3113 3112 3110 3109 3108 3107 3106 3105 3103 3102 3101 3099 3098 3096 3094 3093 3092 3091 3089 3087 3085 3082 3081 3081 3080 3080 3079 3079 3078 3077 3076 3074 3073 3071 3069 3066 3063 3061 3059 3057 3055 3051 3048 3044 3041 3038 3034 3030 3025 3021 3017 3014 3010
3158 3157 3157 3157 3156 3155 3155 3154 3154 3154 3153 3152 3151 3150 3149 3148 3147 3146 3144 3143 3142 3140 3138 3137 3135 3133 3131 3129 3127 3124 3122 3120 3118 3116 3114 3112 3111 3109 3108 3107 3107 3106 3104 3103 3102 3100 3099 3097 3096 3094 3092 3091 3090 3089 3086 3083 3081 3080 3080 3079 3078 3078 3078 3077 3076 3075 3072 3070 3067 3065 3062 3059 3057 3055 3053 3051 3047 3043 3040 3037 3033 3029 3025 3021 3016 3013 3009 3005
3159 3158 3158 3158 3157 3156 3156 3156 3155 3155 3154 3152 3151 3150 3149 3148 3147 3146 3144 3143 3142 3140 3138 3136 3134 3133 3131 3129 3126 3124 3122 3120 3118 3116 3114 3112 3110 3109 3108 3107 3106 3105 3104 3103 3101 3100 3098 3097 3095 3093 3092 3090 3089 3087 3084 3081 3080 3079 3079 3078 3077 3077 3076 3075 3075 3073 3071 3068 3065 3062 3059 3057 3055 3052 3049 3046 3042 3039 3035 3032 3028 3023 3020 3016 3011 3008 3003 2999